Time,TemperatureF,DewpointF,PressureIn,WindDirection,WindDirectionDegrees,WindSpeedMPH,WindSpeedGustMPH,Humidity,HourlyPrecipIn,Conditions,Clouds,dailyrainin,SoftwareType,DateUTC
2013-01-14 00:03:00,38.7,14.0,29.48,NNW,337,3.0,-999.0,32,0.00,,,0.00,Rainwise IP-100,2013-01-14 08:03:00,
2013-01-14 00:08:00,38.8,14.0,29.48,NNW,337,3.3,-999.0,32,0.00,,,0.00,Rainwise IP-100,2013-01-14 08:08:00,
2013-01-14 00:13:00,39.0,11.0,29.48,North,360,0.0,-999.0,31,0.00,,,0.00,Rainwise IP-100,2013-01-14 08:13:00,
2013-01-14 00:18:00,39.2,11.0,29.48,ESE,112,2.8,-999.0,31,0.00,,,0.00,Rainwise IP-100,2013-01-14 08:18:00,
2013-01-14 00:23:00,39.3,11.0,29.48,West,270,0.0,-999.0,31,0.00,,,0.00,Rainwise IP-100,2013-01-14 08:23:00,
2013-01-14 00:28:00,38.9,11.0,29.49,NNE,22,0.0,-999.0,31,0.00,,,0.00,Rainwise IP-100,2013-01-14 08:28:00,
2013-01-14 00:33:00,38.5,14.0,29.48,North,360,0.0,-999.0,32,0.00,,,0.00,Rainwise IP-100,2013-01-14 08:33:00,
2013-01-14 00:38:00,38.3,11.0,29.49,NE,45,0.0,-999.0,32,0.00,,,0.00,Rainwise IP-100,2013-01-14 08:38:00,
2013-01-14 00:43:00,38.3,11.0,29.49,NNE,22,2.8,-999.0,32,0.00,,,0.00,Rainwise IP-100,2013-01-14 08:43:00,
2013-01-14 00:48:00,38.3,11.0,29.49,NNW,337,2.8,-999.0,32,0.00,,,0.00,Rainwise IP-100,2013-01-14 08:48:00,
2013-01-14 00:53:00,38.3,11.0,29.49,North,360,3.3,-999.0,32,0.00,,,0.00,Rainwise IP-100,2013-01-14 08:53:00,
2013-01-14 00:54:00,38.3,11.0,29.50,North,360,2.3,-999.0,32,0.00,,,0.00,Rainwise IP-100,2013-01-14 08:54:00,
2013-01-14 00:59:00,38.2,11.0,29.50,NNE,22,2.3,-999.0,32,0.00,,,0.00,Rainwise IP-100,2013-01-14 08:59:00,
2013-01-14 01:04:00,38.2,11.0,29.50,North,360,5.1,-999.0,32,0.00,,,0.00,Rainwise IP-100,2013-01-14 09:04:00,
2013-01-14 01:10:00,38.4,11.0,29.49,NNW,337,4.4,-999.0,32,0.00,,,0.00,Rainwise IP-100,2013-01-14 09:10:00,
2013-01-14 01:15:00,38.9,14.0,29.49,North,360,7.7,-999.0,32,0.00,,,0.00,Rainwise IP-100,2013-01-14 09:15:00,
2013-01-14 01:20:00,39.2,11.0,29.49,North,360,5.4,-999.0,31,0.00,,,0.00,Rainwise IP-100,2013-01-14 09:20:00,
2013-01-14 01:25:00,39.4,11.0,29.49,NNW,337,1.4,-999.0,31,0.00,,,0.00,Rainwise IP-100,2013-01-14 09:25:00,
2013-01-14 01:30:00,39.3,11.0,29.49,NNW,337,2.8,-999.0,31,0.00,,,0.00,Rainwise IP-100,2013-01-14 09:30:00,
2013-01-14 01:35:00,39.2,11.0,29.49,NNW,337,5.1,-999.0,31,0.00,,,0.00,Rainwise IP-100,2013-01-14 09:35:00,
2013-01-14 01:40:00,39.3,11.0,29.49,NNE,22,2.6,-999.0,31,0.00,,,0.00,Rainwise IP-100,2013-01-14 09:40:00,
2013-01-14 01:45:00,39.3,11.0,29.49,NNW,337,1.2,-999.0,31,0.00,,,0.00,Rainwise IP-100,2013-01-14 09:45:00,
2013-01-14 01:50:00,39.2,11.0,29.50,North,360,3.5,-999.0,31,0.00,,,0.00,Rainwise IP-100,2013-01-14 09:50:00,
2013-01-14 01:55:00,39.2,11.0,29.50,ENE,67,1.4,-999.0,31,0.00,,,0.00,Rainwise IP-100,2013-01-14 09:55:00,
2013-01-14 02:00:00,39.3,11.0,29.50,NNE,22,4.9,-999.0,31,0.00,,,0.00,Rainwise IP-100,2013-01-14 10:00:00,
2013-01-14 02:05:00,39.1,11.0,29.50,NNE,22,2.8,-999.0,31,0.00,,,0.00,Rainwise IP-100,2013-01-14 10:05:00,
2013-01-14 02:10:00,38.9,14.0,29.50,NNW,337,0.0,-999.0,32,0.00,,,0.00,Rainwise IP-100,2013-01-14 10:10:00,
2013-01-14 02:15:00,38.8,14.0,29.51,North,360,3.3,-999.0,32,0.00,,,0.00,Rainwise IP-100,2013-01-14 10:15:00,
2013-01-14 02:20:00,39.0,14.0,29.51,NNE,22,0.0,-999.0,32,0.00,,,0.00,Rainwise IP-100,2013-01-14 10:20:00,
2013-01-14 02:25:00,39.0,14.0,29.51,WSW,247,0.0,-999.0,32,0.00,,,0.00,Rainwise IP-100,2013-01-14 10:25:00,
2013-01-14 02:30:00,38.7,14.0,29.51,WNW,292,1.6,-999.0,32,0.00,,,0.00,Rainwise IP-100,2013-01-14 10:30:00,
2013-01-14 02:35:00,38.4,11.0,29.51,North,360,5.1,-999.0,32,0.00,,,0.00,Rainwise IP-100,2013-01-14 10:35:00,
2013-01-14 02:40:00,38.5,14.0,29.51,SW,225,0.0,-999.0,32,0.00,,,0.00,Rainwise IP-100,2013-01-14 10:40:00,
2013-01-14 02:45:00,38.8,11.0,29.51,NNE,22,0.0,-999.0,31,0.00,,,0.00,Rainwise IP-100,2013-01-14 10:45:00,
2013-01-14 02:50:00,38.8,14.0,29.51,SSE,157,0.0,-999.0,32,0.00,,,0.00,Rainwise IP-100,2013-01-14 10:50:00,
2013-01-14 02:55:00,38.5,14.0,29.51,North,360,2.8,-999.0,32,0.00,,,0.00,Rainwise IP-100,2013-01-14 10:55:00,
2013-01-14 03:00:00,38.4,11.0,29.51,North,360,4.4,-999.0,32,0.00,,,0.00,Rainwise IP-100,2013-01-14 11:00:00,
2013-01-14 03:05:00,38.7,11.0,29.52,WNW,292,2.1,-999.0,31,0.00,,,0.00,Rainwise IP-100,2013-01-14 11:05:00,
2013-01-14 03:10:00,38.7,11.0,29.52,ENE,67,1.4,-999.0,31,0.00,,,0.00,Rainwise IP-100,2013-01-14 11:10:00,
2013-01-14 03:15:00,38.4,11.0,29.52,WSW,247,3.0,-999.0,31,0.00,,,0.00,Rainwise IP-100,2013-01-14 11:15:00,
2013-01-14 03:20:00,38.5,11.0,29.52,NNE,22,1.4,-999.0,31,0.00,,,0.00,Rainwise IP-100,2013-01-14 11:20:00,
2013-01-14 03:25:00,38.9,11.0,29.52,North,360,0.0,-999.0,30,0.00,,,0.00,Rainwise IP-100,2013-01-14 11:25:00,
2013-01-14 03:30:00,38.8,11.0,29.52,SW,225,1.2,-999.0,30,0.00,,,0.00,Rainwise IP-100,2013-01-14 11:30:00,
2013-01-14 03:35:00,38.4,11.0,29.51,WSW,247,4.9,-999.0,31,0.00,,,0.00,Rainwise IP-100,2013-01-14 11:35:00,
2013-01-14 03:40:00,38.2,11.0,29.51,West,270,2.6,-999.0,31,0.00,,,0.00,Rainwise IP-100,2013-01-14 11:40:00,
2013-01-14 03:45:00,38.2,11.0,29.51,West,270,3.0,-999.0,31,0.00,,,0.00,Rainwise IP-100,2013-01-14 11:45:00,
2013-01-14 03:50:00,37.8,11.0,29.51,WSW,247,1.4,-999.0,32,0.00,,,0.00,Rainwise IP-100,2013-01-14 11:50:00,
2013-01-14 03:55:00,37.0,11.0,29.51,SW,225,0.0,-999.0,34,0.00,,,0.00,Rainwise IP-100,2013-01-14 11:55:00,
2013-01-14 04:00:00,36.1,14.0,29.51,SSW,202,0.0,-999.0,36,0.00,,,0.00,Rainwise IP-100,2013-01-14 12:00:00,
2013-01-14 04:05:00,35.7,14.0,29.51,ENE,67,1.2,-999.0,37,0.00,,,0.00,Rainwise IP-100,2013-01-14 12:05:00,
2013-01-14 04:10:00,35.7,14.0,29.51,ENE,67,0.0,-999.0,36,0.00,,,0.00,Rainwise IP-100,2013-01-14 12:10:00,
2013-01-14 04:15:00,35.4,11.0,29.51,NNE,22,2.3,-999.0,37,0.00,,,0.00,Rainwise IP-100,2013-01-14 12:15:00,
2013-01-14 04:20:00,34.9,14.0,29.51,South,180,0.0,-999.0,39,0.00,,,0.00,Rainwise IP-100,2013-01-14 12:20:00,
2013-01-14 04:25:00,34.6,14.0,29.51,South,180,0.0,-999.0,39,0.00,,,0.00,Rainwise IP-100,2013-01-14 12:25:00,
2013-01-14 04:30:00,34.6,14.0,29.52,North,360,0.0,-999.0,39,0.00,,,0.00,Rainwise IP-100,2013-01-14 12:30:00,
2013-01-14 04:35:00,34.8,14.0,29.52,South,180,2.1,-999.0,39,0.00,,,0.00,Rainwise IP-100,2013-01-14 12:35:00,
2013-01-14 04:40:00,34.9,14.0,29.52,SSE,157,4.4,-999.0,38,0.00,,,0.00,Rainwise IP-100,2013-01-14 12:40:00,
2013-01-14 04:45:00,34.5,14.0,29.53,SSW,202,1.6,-999.0,39,0.00,,,0.00,Rainwise IP-100,2013-01-14 12:45:00,
2013-01-14 04:50:00,33.9,14.0,29.53,WSW,247,0.0,-999.0,41,0.00,,,0.00,Rainwise IP-100,2013-01-14 12:50:00,
2013-01-14 04:55:00,33.3,14.0,29.51,WSW,247,4.2,-999.0,43,0.00,,,0.00,Rainwise IP-100,2013-01-14 12:55:00,
2013-01-14 05:00:00,32.6,14.0,29.52,SW,225,3.3,-999.0,44,0.00,,,0.00,Rainwise IP-100,2013-01-14 13:00:00,
2013-01-14 05:05:00,32.4,14.0,29.51,SW,225,0.0,-999.0,45,0.00,,,0.00,Rainwise IP-100,2013-01-14 13:05:00,
2013-01-14 05:10:00,32.6,14.0,29.52,SW,225,0.0,-999.0,44,0.00,,,0.00,Rainwise IP-100,2013-01-14 13:10:00,
2013-01-14 05:15:00,33.1,14.0,29.52,West,270,2.1,-999.0,43,0.00,,,0.00,Rainwise IP-100,2013-01-14 13:15:00,
2013-01-14 05:20:00,33.0,14.0,29.52,WSW,247,1.2,-999.0,44,0.00,,,0.00,Rainwise IP-100,2013-01-14 13:20:00,
2013-01-14 05:25:00,33.0,14.0,29.52,SSW,202,3.7,-999.0,43,0.00,,,0.00,Rainwise IP-100,2013-01-14 13:25:00,
2013-01-14 05:30:00,33.8,14.0,29.52,NNW,337,0.0,-999.0,41,0.00,,,0.00,Rainwise IP-100,2013-01-14 13:30:00,
2013-01-14 05:35:00,34.3,14.0,29.52,SW,225,0.0,-999.0,39,0.00,,,0.00,Rainwise IP-100,2013-01-14 13:35:00,
2013-01-14 05:40:00,34.6,14.0,29.52,SW,225,0.0,-999.0,39,0.00,,,0.00,Rainwise IP-100,2013-01-14 13:40:00,
2013-01-14 05:45:00,34.6,14.0,29.53,NNE,22,0.0,-999.0,39,0.00,,,0.00,Rainwise IP-100,2013-01-14 13:45:00,
2013-01-14 05:50:00,34.2,14.0,29.53,NNE,22,0.0,-999.0,39,0.00,,,0.00,Rainwise IP-100,2013-01-14 13:50:00,
2013-01-14 05:55:00,33.8,14.0,29.54,WNW,292,0.0,-999.0,40,0.00,,,0.00,Rainwise IP-100,2013-01-14 13:55:00,
2013-01-14 06:00:00,33.2,14.0,29.55,WNW,292,0.0,-999.0,42,0.00,,,0.00,Rainwise IP-100,2013-01-14 14:00:00,
2013-01-14 06:05:00,32.5,14.0,29.55,WNW,292,1.9,-999.0,44,0.00,,,0.00,Rainwise IP-100,2013-01-14 14:05:00,
2013-01-14 06:10:00,32.3,14.0,29.55,WNW,292,2.1,-999.0,44,0.00,,,0.00,Rainwise IP-100,2013-01-14 14:10:00,
2013-01-14 06:15:00,32.5,14.0,29.55,WNW,292,0.0,-999.0,44,0.00,,,0.00,Rainwise IP-100,2013-01-14 14:15:00,
2013-01-14 06:20:00,32.5,14.0,29.56,West,270,1.6,-999.0,44,0.00,,,0.00,Rainwise IP-100,2013-01-14 14:20:00,
2013-01-14 06:25:00,32.2,14.0,29.56,WSW,247,0.0,-999.0,45,0.00,,,0.00,Rainwise IP-100,2013-01-14 14:25:00,
2013-01-14 06:30:00,32.1,14.0,29.56,WSW,247,1.9,-999.0,45,0.00,,,0.00,Rainwise IP-100,2013-01-14 14:30:00,
2013-01-14 06:35:00,31.9,14.0,29.57,WSW,247,2.8,-999.0,46,0.00,,,0.00,Rainwise IP-100,2013-01-14 14:35:00,
2013-01-14 06:40:00,31.9,14.0,29.57,WSW,247,2.6,-999.0,46,0.00,,,0.00,Rainwise IP-100,2013-01-14 14:40:00,
2013-01-14 06:45:00,33.0,14.0,29.57,SSW,202,0.0,-999.0,43,0.00,,,0.00,Rainwise IP-100,2013-01-14 14:45:00,
2013-01-14 06:50:00,33.7,14.0,29.57,SW,225,1.2,-999.0,41,0.00,,,0.00,Rainwise IP-100,2013-01-14 14:50:00,
2013-01-14 06:55:00,33.7,14.0,29.57,SW,225,2.3,-999.0,41,0.00,,,0.00,Rainwise IP-100,2013-01-14 14:55:00,
2013-01-14 07:00:00,33.5,14.0,29.57,SW,225,2.8,-999.0,41,0.00,,,0.00,Rainwise IP-100,2013-01-14 15:00:00,
2013-01-14 07:05:00,33.1,14.0,29.57,NNW,337,0.0,-999.0,42,0.00,,,0.00,Rainwise IP-100,2013-01-14 15:05:00,
2013-01-14 07:10:00,33.2,14.0,29.57,NNW,337,0.0,-999.0,42,0.00,,,0.00,Rainwise IP-100,2013-01-14 15:10:00,
2013-01-14 07:15:00,33.2,14.0,29.57,ENE,67,1.2,-999.0,42,0.00,,,0.00,Rainwise IP-100,2013-01-14 15:15:00,
2013-01-14 07:20:00,32.8,14.0,29.57,SW,225,0.0,-999.0,43,0.00,,,0.00,Rainwise IP-100,2013-01-14 15:20:00,
2013-01-14 07:25:00,32.8,14.0,29.58,WSW,247,3.3,-999.0,43,0.00,,,0.00,Rainwise IP-100,2013-01-14 15:25:00,
2013-01-14 07:30:00,33.3,14.0,29.58,NE,45,0.0,-999.0,42,0.00,,,0.00,Rainwise IP-100,2013-01-14 15:30:00,
2013-01-14 07:35:00,33.8,14.0,29.58,SSW,202,0.0,-999.0,42,0.00,,,0.00,Rainwise IP-100,2013-01-14 15:35:00,
2013-01-14 07:40:00,33.4,14.0,29.58,WSW,247,2.1,-999.0,42,0.00,,,0.00,Rainwise IP-100,2013-01-14 15:40:00,
2013-01-14 07:45:00,33.3,14.0,29.58,WSW,247,2.3,-999.0,42,0.00,,,0.00,Rainwise IP-100,2013-01-14 15:45:00,
2013-01-14 07:50:00,33.4,14.0,29.58,SW,225,0.0,-999.0,43,0.00,,,0.00,Rainwise IP-100,2013-01-14 15:50:00,
2013-01-14 07:55:00,33.6,16.0,29.58,WSW,247,0.0,-999.0,43,0.00,,,0.00,Rainwise IP-100,2013-01-14 15:55:00,
2013-01-14 08:00:00,34.1,16.0,29.58,WSW,247,0.0,-999.0,43,0.00,,,0.00,Rainwise IP-100,2013-01-14 16:00:00,
2013-01-14 08:05:00,34.6,16.0,29.59,WSW,247,0.0,-999.0,43,0.00,,,0.00,Rainwise IP-100,2013-01-14 16:05:00,
2013-01-14 08:10:00,34.7,16.0,29.59,WSW,247,0.0,-999.0,43,0.00,,,0.00,Rainwise IP-100,2013-01-14 16:10:00,
2013-01-14 08:15:00,34.5,16.0,29.59,WSW,247,1.4,-999.0,45,0.00,,,0.00,Rainwise IP-100,2013-01-14 16:15:00,
2013-01-14 08:20:00,34.6,16.0,29.59,WSW,247,0.0,-999.0,45,0.00,,,0.00,Rainwise IP-100,2013-01-14 16:20:00,
2013-01-14 08:25:00,35.1,16.0,29.59,NE,45,0.0,-999.0,45,0.00,,,0.00,Rainwise IP-100,2013-01-14 16:25:00,
2013-01-14 08:30:00,35.4,16.0,29.60,NE,45,0.0,-999.0,47,0.00,,,0.00,Rainwise IP-100,2013-01-14 16:30:00,
2013-01-14 08:35:00,35.5,18.0,29.60,WSW,247,2.3,-999.0,47,0.00,,,0.00,Rainwise IP-100,2013-01-14 16:35:00,
2013-01-14 08:40:00,35.9,18.0,29.60,WSW,247,0.0,-999.0,48,0.00,,,0.00,Rainwise IP-100,2013-01-14 16:40:00,
2013-01-14 08:45:00,36.7,18.0,29.60,WSW,247,0.0,-999.0,46,0.00,,,0.00,Rainwise IP-100,2013-01-14 16:45:00,
2013-01-14 08:50:00,38.0,18.0,29.61,WSW,247,0.0,-999.0,43,0.00,,,0.00,Rainwise IP-100,2013-01-14 16:50:00,
2013-01-14 08:55:00,39.8,18.0,29.61,WSW,247,0.0,-999.0,40,0.00,,,0.00,Rainwise IP-100,2013-01-14 16:55:00,
2013-01-14 09:00:00,41.2,18.0,29.61,SSE,157,2.3,-999.0,37,0.00,,,0.00,Rainwise IP-100,2013-01-14 17:00:00,
2013-01-14 09:05:00,42.1,16.0,29.61,SSE,157,3.3,-999.0,34,0.00,,,0.00,Rainwise IP-100,2013-01-14 17:05:00,
2013-01-14 09:10:00,42.6,16.0,29.61,SSE,157,0.0,-999.0,32,0.00,,,0.00,Rainwise IP-100,2013-01-14 17:10:00,
2013-01-14 09:15:00,43.0,16.0,29.61,SSE,157,1.9,-999.0,33,0.00,,,0.00,Rainwise IP-100,2013-01-14 17:15:00,
2013-01-14 09:20:00,43.6,16.0,29.61,ESE,112,1.6,-999.0,32,0.00,,,0.00,Rainwise IP-100,2013-01-14 17:20:00,
2013-01-14 09:25:00,44.3,16.0,29.61,SSE,157,1.2,-999.0,32,0.00,,,0.00,Rainwise IP-100,2013-01-14 17:25:00,
2013-01-14 09:30:00,45.1,16.0,29.62,ENE,67,1.2,-999.0,30,0.00,,,0.00,Rainwise IP-100,2013-01-14 17:30:00,
2013-01-14 09:35:00,45.5,16.0,29.61,NNE,22,0.0,-999.0,28,0.00,,,0.00,Rainwise IP-100,2013-01-14 17:35:00,
2013-01-14 09:40:00,45.9,14.0,29.61,ENE,67,1.6,-999.0,27,0.00,,,0.00,Rainwise IP-100,2013-01-14 17:40:00,
2013-01-14 09:45:00,46.5,14.0,29.61,NE,45,3.5,-999.0,26,0.00,,,0.00,Rainwise IP-100,2013-01-14 17:45:00,
2013-01-14 09:50:00,46.9,14.0,29.62,NNE,22,0.0,-999.0,26,0.00,,,0.00,Rainwise IP-100,2013-01-14 17:50:00,
2013-01-14 09:55:00,47.8,14.0,29.61,NNW,337,2.8,-999.0,24,0.00,,,0.00,Rainwise IP-100,2013-01-14 17:55:00,
2013-01-14 10:00:00,49.0,14.0,29.62,NNE,22,1.6,-999.0,23,0.00,,,0.00,Rainwise IP-100,2013-01-14 18:00:00,
2013-01-14 10:05:00,49.3,14.0,29.62,ENE,67,0.0,-999.0,23,0.00,,,0.00,Rainwise IP-100,2013-01-14 18:05:00,
2013-01-14 10:10:00,49.7,14.0,29.62,WNW,292,0.0,-999.0,23,0.00,,,0.00,Rainwise IP-100,2013-01-14 18:10:00,
2013-01-14 10:15:00,50.0,14.0,29.62,WSW,247,3.0,-999.0,23,0.00,,,0.00,Rainwise IP-100,2013-01-14 18:15:00,
2013-01-14 10:20:00,49.8,14.0,29.62,NNW,337,2.1,-999.0,22,0.00,,,0.00,Rainwise IP-100,2013-01-14 18:20:00,
2013-01-14 10:25:00,49.2,14.0,29.63,North,360,4.2,-999.0,22,0.00,,,0.00,Rainwise IP-100,2013-01-14 18:25:00,
2013-01-14 10:30:00,49.0,14.0,29.63,ENE,67,0.0,-999.0,22,0.00,,,0.00,Rainwise IP-100,2013-01-14 18:30:00,
2013-01-14 10:35:00,49.4,14.0,29.63,NNW,337,0.0,-999.0,23,0.00,,,0.00,Rainwise IP-100,2013-01-14 18:35:00,
2013-01-14 10:40:00,49.0,14.0,29.62,ESE,112,2.8,-999.0,23,0.00,,,0.00,Rainwise IP-100,2013-01-14 18:40:00,
2013-01-14 10:45:00,48.7,14.0,29.62,NNE,22,0.0,-999.0,23,0.00,,,0.00,Rainwise IP-100,2013-01-14 18:45:00,
2013-01-14 10:50:00,49.7,14.0,29.62,WNW,292,2.8,-999.0,23,0.00,,,0.00,Rainwise IP-100,2013-01-14 18:50:00,
2013-01-14 10:55:00,50.8,14.0,29.62,SSW,202,2.6,-999.0,22,0.00,,,0.00,Rainwise IP-100,2013-01-14 18:55:00,
2013-01-14 11:00:00,50.6,14.0,29.62,ESE,112,2.3,-999.0,21,0.00,,,0.00,Rainwise IP-100,2013-01-14 19:00:00,
2013-01-14 11:05:00,50.0,14.0,29.62,SE,135,2.3,-999.0,22,0.00,,,0.00,Rainwise IP-100,2013-01-14 19:05:00,
2013-01-14 11:10:00,49.5,14.0,29.62,ESE,112,1.9,-999.0,22,0.00,,,0.00,Rainwise IP-100,2013-01-14 19:10:00,
2013-01-14 11:15:00,49.6,14.0,29.61,NNE,22,3.0,-999.0,22,0.00,,,0.00,Rainwise IP-100,2013-01-14 19:15:00,
2013-01-14 11:20:00,49.9,14.0,29.61,ENE,67,1.6,-999.0,22,0.00,,,0.00,Rainwise IP-100,2013-01-14 19:20:00,
2013-01-14 11:25:00,49.7,14.0,29.61,NNE,22,2.8,-999.0,22,0.00,,,0.00,Rainwise IP-100,2013-01-14 19:25:00,
2013-01-14 11:30:00,49.9,14.0,29.61,NNE,22,2.3,-999.0,22,0.00,,,0.00,Rainwise IP-100,2013-01-14 19:30:00,
2013-01-14 11:35:00,50.5,14.0,29.60,NNE,22,3.0,-999.0,21,0.00,,,0.00,Rainwise IP-100,2013-01-14 19:35:00,
2013-01-14 11:40:00,51.6,14.0,29.60,ENE,67,2.6,-999.0,21,0.00,,,0.00,Rainwise IP-100,2013-01-14 19:40:00,
2013-01-14 11:45:00,52.5,14.0,29.59,NNE,22,0.0,-999.0,21,0.00,,,0.00,Rainwise IP-100,2013-01-14 19:45:00,
2013-01-14 11:50:00,52.7,14.0,29.59,NNE,22,3.0,-999.0,20,0.00,,,0.00,Rainwise IP-100,2013-01-14 19:50:00,
2013-01-14 11:55:00,53.0,14.0,29.58,NNW,337,3.5,-999.0,20,0.00,,,0.00,Rainwise IP-100,2013-01-14 19:55:00,
2013-01-14 12:00:00,52.9,14.0,29.58,NNW,337,2.1,-999.0,20,0.00,,,0.00,Rainwise IP-100,2013-01-14 20:00:00,
2013-01-14 12:05:00,53.1,14.0,29.58,NNW,337,2.1,-999.0,21,0.00,,,0.00,Rainwise IP-100,2013-01-14 20:05:00,
2013-01-14 12:10:00,53.6,16.0,29.58,North,360,3.7,-999.0,21,0.00,,,0.00,Rainwise IP-100,2013-01-14 20:10:00,
2013-01-14 12:15:00,53.7,14.0,29.58,NNW,337,1.4,-999.0,19,0.00,,,0.00,Rainwise IP-100,2013-01-14 20:15:00,
2013-01-14 12:20:00,53.9,14.0,29.57,NNW,337,3.3,-999.0,20,0.00,,,0.00,Rainwise IP-100,2013-01-14 20:20:00,
2013-01-14 12:25:00,54.4,16.0,29.57,North,360,1.9,-999.0,21,0.00,,,0.00,Rainwise IP-100,2013-01-14 20:25:00,
2013-01-14 12:30:00,54.7,16.0,29.57,North,360,2.6,-999.0,20,0.00,,,0.00,Rainwise IP-100,2013-01-14 20:30:00,
2013-01-14 12:35:00,54.7,16.0,29.57,North,360,4.0,-999.0,20,0.00,,,0.00,Rainwise IP-100,2013-01-14 20:35:00,
2013-01-14 12:40:00,54.7,16.0,29.57,NNW,337,0.0,-999.0,20,0.00,,,0.00,Rainwise IP-100,2013-01-14 20:40:00,
2013-01-14 12:45:00,55.1,16.0,29.57,NNW,337,3.3,-999.0,20,0.00,,,0.00,Rainwise IP-100,2013-01-14 20:45:00,
2013-01-14 12:50:00,54.6,16.0,29.57,East,90,1.9,-999.0,20,0.00,,,0.00,Rainwise IP-100,2013-01-14 20:50:00,
2013-01-14 12:55:00,54.4,16.0,29.57,North,360,2.8,-999.0,20,0.00,,,0.00,Rainwise IP-100,2013-01-14 20:55:00,
2013-01-14 13:00:00,55.3,16.0,29.56,North,360,1.6,-999.0,20,0.00,,,0.00,Rainwise IP-100,2013-01-14 21:00:00,
2013-01-14 13:05:00,55.7,16.0,29.56,WSW,247,4.2,-999.0,20,0.00,,,0.00,Rainwise IP-100,2013-01-14 21:05:00,
2013-01-14 13:10:00,55.6,16.0,29.56,North,360,0.0,-999.0,20,0.00,,,0.00,Rainwise IP-100,2013-01-14 21:10:00,
2013-01-14 13:15:00,55.2,16.0,29.57,ENE,67,2.6,-999.0,20,0.00,,,0.00,Rainwise IP-100,2013-01-14 21:15:00,
2013-01-14 13:20:00,54.3,16.0,29.57,ENE,67,4.4,-999.0,21,0.00,,,0.00,Rainwise IP-100,2013-01-14 21:20:00,
2013-01-14 13:25:00,54.2,16.0,29.56,ENE,67,4.2,-999.0,21,0.00,,,0.00,Rainwise IP-100,2013-01-14 21:25:00,
2013-01-14 13:30:00,54.4,16.0,29.57,East,90,4.2,-999.0,21,0.00,,,0.00,Rainwise IP-100,2013-01-14 21:30:00,
2013-01-14 13:35:00,54.4,16.0,29.57,NW,315,0.0,-999.0,20,0.00,,,0.00,Rainwise IP-100,2013-01-14 21:35:00,
2013-01-14 13:40:00,54.3,16.0,29.57,ESE,112,1.2,-999.0,20,0.00,,,0.00,Rainwise IP-100,2013-01-14 21:40:00,
2013-01-14 13:45:00,54.2,16.0,29.57,SSE,157,3.0,-999.0,21,0.00,,,0.00,Rainwise IP-100,2013-01-14 21:45:00,
2013-01-14 13:50:00,54.2,16.0,29.57,East,90,2.6,-999.0,21,0.00,,,0.00,Rainwise IP-100,2013-01-14 21:50:00,
2013-01-14 13:55:00,54.4,16.0,29.57,SSE,157,0.0,-999.0,21,0.00,,,0.00,Rainwise IP-100,2013-01-14 21:55:00,
2013-01-14 14:00:00,54.8,16.0,29.57,East,90,3.7,-999.0,21,0.00,,,0.00,Rainwise IP-100,2013-01-14 22:00:00,
2013-01-14 14:05:00,54.5,16.0,29.57,ENE,67,2.3,-999.0,21,0.00,,,0.00,Rainwise IP-100,2013-01-14 22:05:00,
2013-01-14 14:10:00,54.1,16.0,29.57,NNE,22,1.2,-999.0,21,0.00,,,0.00,Rainwise IP-100,2013-01-14 22:10:00,
2013-01-14 14:15:00,53.9,14.0,29.57,ESE,112,4.7,-999.0,20,0.00,,,0.00,Rainwise IP-100,2013-01-14 22:15:00,
2013-01-14 14:20:00,54.3,16.0,29.57,NNE,22,2.8,-999.0,21,0.00,,,0.00,Rainwise IP-100,2013-01-14 22:20:00,
2013-01-14 14:25:00,54.5,16.0,29.57,NNE,22,4.2,-999.0,21,0.00,,,0.00,Rainwise IP-100,2013-01-14 22:25:00,
2013-01-14 14:30:00,53.9,16.0,29.58,ENE,67,3.0,-999.0,22,0.00,,,0.00,Rainwise IP-100,2013-01-14 22:30:00,
2013-01-14 14:35:00,53.3,16.0,29.58,ENE,67,5.8,-999.0,22,0.00,,,0.00,Rainwise IP-100,2013-01-14 22:35:00,
2013-01-14 14:40:00,53.1,16.0,29.58,ENE,67,4.7,-999.0,23,0.00,,,0.00,Rainwise IP-100,2013-01-14 22:40:00,
2013-01-14 14:45:00,53.5,16.0,29.58,ESE,112,2.3,-999.0,23,0.00,,,0.00,Rainwise IP-100,2013-01-14 22:45:00,
2013-01-14 14:50:00,53.6,16.0,29.58,East,90,2.1,-999.0,23,0.00,,,0.00,Rainwise IP-100,2013-01-14 22:50:00,
2013-01-14 14:55:00,54.1,18.0,29.59,ENE,67,1.9,-999.0,23,0.00,,,0.00,Rainwise IP-100,2013-01-14 22:55:00,
2013-01-14 15:00:00,54.7,18.0,29.59,NNE,22,3.3,-999.0,23,0.00,,,0.00,Rainwise IP-100,2013-01-14 23:00:00,
2013-01-14 15:05:00,54.8,18.0,29.58,NNE,22,3.5,-999.0,22,0.00,,,0.00,Rainwise IP-100,2013-01-14 23:05:00,
2013-01-14 15:10:00,55.3,18.0,29.58,SW,225,0.0,-999.0,22,0.00,,,0.00,Rainwise IP-100,2013-01-14 23:10:00,
2013-01-14 15:15:00,55.7,18.0,29.59,ESE,112,1.9,-999.0,22,0.00,,,0.00,Rainwise IP-100,2013-01-14 23:15:00,
2013-01-14 15:20:00,55.2,18.0,29.58,ESE,112,0.0,-999.0,22,0.00,,,0.00,Rainwise IP-100,2013-01-14 23:20:00,
2013-01-14 15:25:00,55.7,18.0,29.58,WSW,247,3.0,-999.0,22,0.00,,,0.00,Rainwise IP-100,2013-01-14 23:25:00,
2013-01-14 15:30:00,57.2,21.0,29.58,WSW,247,2.3,-999.0,23,0.00,,,0.00,Rainwise IP-100,2013-01-14 23:30:00,
2013-01-14 15:35:00,57.9,21.0,29.59,WNW,292,2.8,-999.0,23,0.00,,,0.00,Rainwise IP-100,2013-01-14 23:35:00,
2013-01-14 15:40:00,57.8,21.0,29.59,WSW,247,2.8,-999.0,22,0.00,,,0.00,Rainwise IP-100,2013-01-14 23:40:00,
2013-01-14 15:45:00,57.5,21.0,29.59,WSW,247,0.0,-999.0,22,0.00,,,0.00,Rainwise IP-100,2013-01-14 23:45:00,
2013-01-14 15:50:00,57.8,21.0,29.58,WSW,247,0.0,-999.0,23,0.00,,,0.00,Rainwise IP-100,2013-01-14 23:50:00,
2013-01-14 15:55:00,57.8,23.0,29.58,WSW,247,2.6,-999.0,24,0.00,,,0.00,Rainwise IP-100,2013-01-14 23:55:00,
2013-01-14 16:00:00,57.3,23.0,29.58,WSW,247,1.2,-999.0,25,0.00,,,0.00,Rainwise IP-100,2013-01-15 00:00:00,
2013-01-14 16:05:00,56.5,23.0,29.59,WSW,247,2.1,-999.0,25,0.00,,,0.00,Rainwise IP-100,2013-01-15 00:05:00,
2013-01-14 16:10:00,55.6,23.0,29.59,WSW,247,1.6,-999.0,26,0.00,,,0.00,Rainwise IP-100,2013-01-15 00:10:00,
2013-01-14 16:15:00,54.9,23.0,29.59,WSW,247,0.0,-999.0,27,0.00,,,0.00,Rainwise IP-100,2013-01-15 00:15:00,
2013-01-14 16:20:00,54.5,23.0,29.59,WSW,247,1.2,-999.0,29,0.00,,,0.00,Rainwise IP-100,2013-01-15 00:20:00,
2013-01-14 16:25:00,53.9,24.0,29.59,WSW,247,2.1,-999.0,30,0.00,,,0.00,Rainwise IP-100,2013-01-15 00:25:00,
2013-01-14 16:30:00,52.6,23.0,29.59,WSW,247,1.6,-999.0,30,0.00,,,0.00,Rainwise IP-100,2013-01-15 00:30:00,
2013-01-14 16:35:00,51.2,23.0,29.60,WSW,247,1.4,-999.0,32,0.00,,,0.00,Rainwise IP-100,2013-01-15 00:35:00,
2013-01-14 16:40:00,50.5,24.0,29.59,WSW,247,0.0,-999.0,34,0.00,,,0.00,Rainwise IP-100,2013-01-15 00:40:00,
2013-01-14 16:45:00,49.5,26.0,29.60,WSW,247,1.6,-999.0,38,0.00,,,0.00,Rainwise IP-100,2013-01-15 00:45:00,
2013-01-14 16:50:00,47.7,26.0,29.59,WSW,247,3.0,-999.0,41,0.00,,,0.00,Rainwise IP-100,2013-01-15 00:50:00,
2013-01-14 16:55:00,45.9,26.0,29.59,WSW,247,0.0,-999.0,44,0.00,,,0.00,Rainwise IP-100,2013-01-15 00:55:00,
2013-01-14 17:00:00,44.8,26.0,29.59,WSW,247,0.0,-999.0,45,0.00,,,0.00,Rainwise IP-100,2013-01-15 01:00:00,
2013-01-14 17:05:00,44.2,24.0,29.59,WSW,247,0.0,-999.0,45,0.00,,,0.00,Rainwise IP-100,2013-01-15 01:05:00,
2013-01-14 17:10:00,43.7,24.0,29.58,WSW,247,1.2,-999.0,45,0.00,,,0.00,Rainwise IP-100,2013-01-15 01:10:00,
2013-01-14 17:15:00,43.0,24.0,29.58,WSW,247,0.0,-999.0,46,0.00,,,0.00,Rainwise IP-100,2013-01-15 01:15:00,
2013-01-14 17:20:00,42.2,24.0,29.58,WSW,247,0.0,-999.0,48,0.00,,,0.00,Rainwise IP-100,2013-01-15 01:20:00,
2013-01-14 17:25:00,41.7,26.0,29.58,WSW,247,0.0,-999.0,50,0.00,,,0.00,Rainwise IP-100,2013-01-15 01:25:00,
2013-01-14 17:30:00,41.3,26.0,29.59,WSW,247,1.2,-999.0,52,0.00,,,0.00,Rainwise IP-100,2013-01-15 01:30:00,
2013-01-14 17:35:00,40.8,26.0,29.59,WSW,247,2.6,-999.0,54,0.00,,,0.00,Rainwise IP-100,2013-01-15 01:35:00,
2013-01-14 17:40:00,40.2,26.0,29.59,WSW,247,0.0,-999.0,55,0.00,,,0.00,Rainwise IP-100,2013-01-15 01:40:00,
2013-01-14 17:45:00,39.9,26.0,29.58,WSW,247,1.2,-999.0,55,0.00,,,0.00,Rainwise IP-100,2013-01-15 01:45:00,
2013-01-14 17:50:00,39.6,26.0,29.58,WSW,247,0.0,-999.0,56,0.00,,,0.00,Rainwise IP-100,2013-01-15 01:50:00,
2013-01-14 17:55:00,39.1,26.0,29.58,WSW,247,1.6,-999.0,57,0.00,,,0.00,Rainwise IP-100,2013-01-15 01:55:00,
2013-01-14 18:00:00,38.7,26.0,29.59,WSW,247,1.6,-999.0,57,0.00,,,0.00,Rainwise IP-100,2013-01-15 02:00:00,
2013-01-14 18:05:00,38.7,26.0,29.59,WSW,247,0.0,-999.0,57,0.00,,,0.00,Rainwise IP-100,2013-01-15 02:05:00,
2013-01-14 18:10:00,38.6,26.0,29.58,WSW,247,0.0,-999.0,57,0.00,,,0.00,Rainwise IP-100,2013-01-15 02:10:00,
2013-01-14 18:15:00,38.3,24.0,29.58,WSW,247,1.9,-999.0,58,0.00,,,0.00,Rainwise IP-100,2013-01-15 02:15:00,
2013-01-14 18:20:00,37.9,26.0,29.58,WSW,247,0.0,-999.0,59,0.00,,,0.00,Rainwise IP-100,2013-01-15 02:20:00,
2013-01-14 18:25:00,37.7,26.0,29.58,WSW,247,1.2,-999.0,60,0.00,,,0.00,Rainwise IP-100,2013-01-15 02:25:00,
2013-01-14 18:30:00,37.3,24.0,29.58,WSW,247,1.6,-999.0,61,0.00,,,0.00,Rainwise IP-100,2013-01-15 02:30:00,
2013-01-14 18:35:00,36.9,26.0,29.59,WSW,247,0.0,-999.0,62,0.00,,,0.00,Rainwise IP-100,2013-01-15 02:35:00,
2013-01-14 18:40:00,36.5,26.0,29.58,WSW,247,1.4,-999.0,63,0.00,,,0.00,Rainwise IP-100,2013-01-15 02:40:00,
2013-01-14 18:45:00,36.2,24.0,29.58,WSW,247,1.2,-999.0,64,0.00,,,0.00,Rainwise IP-100,2013-01-15 02:45:00,
2013-01-14 18:50:00,35.8,26.0,29.59,WSW,247,1.4,-999.0,65,0.00,,,0.00,Rainwise IP-100,2013-01-15 02:50:00,
2013-01-14 18:55:00,35.6,26.0,29.59,WSW,247,0.0,-999.0,66,0.00,,,0.00,Rainwise IP-100,2013-01-15 02:55:00,
2013-01-14 19:00:00,35.4,24.0,29.58,WSW,247,3.3,-999.0,67,0.00,,,0.00,Rainwise IP-100,2013-01-15 03:00:00,
2013-01-14 19:05:00,35.2,24.0,29.59,WSW,247,1.4,-999.0,67,0.00,,,0.00,Rainwise IP-100,2013-01-15 03:05:00,
2013-01-14 19:10:00,35.1,26.0,29.59,WSW,247,0.0,-999.0,68,0.00,,,0.00,Rainwise IP-100,2013-01-15 03:10:00,
2013-01-14 19:15:00,35.0,26.0,29.59,WSW,247,1.4,-999.0,68,0.00,,,0.00,Rainwise IP-100,2013-01-15 03:15:00,
2013-01-14 19:20:00,35.1,24.0,29.59,WSW,247,0.0,-999.0,67,0.00,,,0.00,Rainwise IP-100,2013-01-15 03:20:00,
2013-01-14 19:25:00,34.9,24.0,29.59,WSW,247,0.0,-999.0,67,0.00,,,0.00,Rainwise IP-100,2013-01-15 03:25:00,
2013-01-14 19:30:00,34.7,26.0,29.59,West,270,1.2,-999.0,68,0.00,,,0.00,Rainwise IP-100,2013-01-15 03:30:00,
2013-01-14 19:35:00,34.3,26.0,29.59,West,270,1.6,-999.0,69,0.00,,,0.00,Rainwise IP-100,2013-01-15 03:35:00,
2013-01-14 19:40:00,34.0,26.0,29.58,West,270,0.0,-999.0,70,0.00,,,0.00,Rainwise IP-100,2013-01-15 03:40:00,
2013-01-14 19:45:00,34.0,26.0,29.59,West,270,0.0,-999.0,70,0.00,,,0.00,Rainwise IP-100,2013-01-15 03:45:00,
2013-01-14 19:50:00,33.9,26.0,29.59,West,270,1.6,-999.0,70,0.00,,,0.00,Rainwise IP-100,2013-01-15 03:50:00,
2013-01-14 19:55:00,33.7,26.0,29.59,WSW,247,1.9,-999.0,71,0.00,,,0.00,Rainwise IP-100,2013-01-15 03:55:00,
2013-01-14 20:00:00,33.8,26.0,29.59,WSW,247,0.0,-999.0,71,0.00,,,0.00,Rainwise IP-100,2013-01-15 04:00:00,
2013-01-14 20:05:00,34.0,26.0,29.59,WSW,247,0.0,-999.0,71,0.00,,,0.00,Rainwise IP-100,2013-01-15 04:05:00,
2013-01-14 20:10:00,34.0,26.0,29.58,West,270,0.0,-999.0,70,0.00,,,0.00,Rainwise IP-100,2013-01-15 04:10:00,
2013-01-14 20:15:00,33.7,26.0,29.59,West,270,3.0,-999.0,71,0.00,,,0.00,Rainwise IP-100,2013-01-15 04:15:00,
2013-01-14 20:20:00,33.4,26.0,29.58,West,270,0.0,-999.0,72,0.00,,,0.00,Rainwise IP-100,2013-01-15 04:20:00,
2013-01-14 20:25:00,33.9,26.0,29.58,West,270,0.0,-999.0,71,0.00,,,0.00,Rainwise IP-100,2013-01-15 04:25:00,
2013-01-14 20:30:00,34.7,26.0,29.58,West,270,0.0,-999.0,68,0.00,,,0.00,Rainwise IP-100,2013-01-15 04:30:00,
2013-01-14 20:35:00,35.2,24.0,29.58,ESE,112,0.0,-999.0,67,0.00,,,0.00,Rainwise IP-100,2013-01-15 04:35:00,
2013-01-14 20:40:00,35.4,24.0,29.58,SSW,202,0.0,-999.0,66,0.00,,,0.00,Rainwise IP-100,2013-01-15 04:40:00,
2013-01-14 20:45:00,35.1,24.0,29.58,SSW,202,0.0,-999.0,66,0.00,,,0.00,Rainwise IP-100,2013-01-15 04:45:00,
2013-01-14 20:50:00,35.0,24.0,29.58,SSW,202,0.0,-999.0,66,0.00,,,0.00,Rainwise IP-100,2013-01-15 04:50:00,
2013-01-14 20:55:00,34.6,24.0,29.58,SSW,202,0.0,-999.0,67,0.00,,,0.00,Rainwise IP-100,2013-01-15 04:55:00,
2013-01-14 21:00:00,34.1,26.0,29.58,SSW,202,0.0,-999.0,68,0.00,,,0.00,Rainwise IP-100,2013-01-15 05:00:00,
2013-01-14 21:05:00,33.6,26.0,29.58,SSW,202,0.0,-999.0,69,0.00,,,0.00,Rainwise IP-100,2013-01-15 05:05:00,
2013-01-14 21:10:00,33.2,24.0,29.58,SSW,202,0.0,-999.0,70,0.00,,,0.00,Rainwise IP-100,2013-01-15 05:10:00,
2013-01-14 21:15:00,32.9,24.0,29.58,NNW,337,0.0,-999.0,71,0.00,,,0.00,Rainwise IP-100,2013-01-15 05:15:00,
2013-01-14 21:20:00,32.6,26.0,29.59,WSW,247,2.3,-999.0,72,0.00,,,0.00,Rainwise IP-100,2013-01-15 05:20:00,
2013-01-14 21:25:00,32.4,24.0,29.59,WSW,247,0.0,-999.0,74,0.00,,,0.00,Rainwise IP-100,2013-01-15 05:25:00,
2013-01-14 21:30:00,32.3,26.0,29.59,WSW,247,0.0,-999.0,75,0.00,,,0.00,Rainwise IP-100,2013-01-15 05:30:00,
2013-01-14 21:35:00,32.1,26.0,29.59,WSW,247,1.6,-999.0,75,0.00,,,0.00,Rainwise IP-100,2013-01-15 05:35:00,
2013-01-14 21:40:00,31.8,26.0,29.59,WSW,247,2.1,-999.0,75,0.00,,,0.00,Rainwise IP-100,2013-01-15 05:40:00,
2013-01-14 21:45:00,31.7,26.0,29.59,WSW,247,1.9,-999.0,76,0.00,,,0.00,Rainwise IP-100,2013-01-15 05:45:00,
2013-01-14 21:50:00,31.5,26.0,29.59,WSW,247,0.0,-999.0,76,0.00,,,0.00,Rainwise IP-100,2013-01-15 05:50:00,
2013-01-14 21:55:00,31.4,24.0,29.59,WSW,247,1.9,-999.0,77,0.00,,,0.00,Rainwise IP-100,2013-01-15 05:55:00,
2013-01-14 22:00:00,31.1,24.0,29.59,WSW,247,2.3,-999.0,77,0.00,,,0.00,Rainwise IP-100,2013-01-15 06:00:00,
2013-01-14 22:05:00,31.2,24.0,29.59,WSW,247,0.0,-999.0,78,0.00,,,0.00,Rainwise IP-100,2013-01-15 06:05:00,
2013-01-14 22:10:00,31.3,24.0,29.59,WSW,247,0.0,-999.0,78,0.00,,,0.00,Rainwise IP-100,2013-01-15 06:10:00,
2013-01-14 22:15:00,31.1,24.0,29.59,WSW,247,0.0,-999.0,77,0.00,,,0.00,Rainwise IP-100,2013-01-15 06:15:00,
2013-01-14 22:20:00,30.9,24.0,29.59,WSW,247,1.6,-999.0,78,0.00,,,0.00,Rainwise IP-100,2013-01-15 06:20:00,
2013-01-14 22:25:00,30.9,24.0,29.59,WSW,247,1.4,-999.0,79,0.00,,,0.00,Rainwise IP-100,2013-01-15 06:25:00,
2013-01-14 22:30:00,31.0,24.0,29.59,WSW,247,0.0,-999.0,79,0.00,,,0.00,Rainwise IP-100,2013-01-15 06:30:00,
2013-01-14 22:35:00,31.0,24.0,29.59,WSW,247,0.0,-999.0,78,0.00,,,0.00,Rainwise IP-100,2013-01-15 06:35:00,
2013-01-14 22:40:00,31.0,24.0,29.59,WSW,247,0.0,-999.0,78,0.00,,,0.00,Rainwise IP-100,2013-01-15 06:40:00,
2013-01-14 22:45:00,31.1,24.0,29.59,WSW,247,1.2,-999.0,78,0.00,,,0.00,Rainwise IP-100,2013-01-15 06:45:00,
2013-01-14 22:50:00,30.7,24.0,29.59,WSW,247,0.0,-999.0,79,0.00,,,0.00,Rainwise IP-100,2013-01-15 06:50:00,
2013-01-14 22:55:00,30.2,24.0,29.59,WSW,247,0.0,-999.0,79,0.00,,,0.00,Rainwise IP-100,2013-01-15 06:55:00,
2013-01-14 23:00:00,30.0,26.0,29.59,WSW,247,1.6,-999.0,80,0.00,,,0.00,Rainwise IP-100,2013-01-15 07:00:00,
2013-01-14 23:05:00,29.9,26.0,29.60,WSW,247,0.0,-999.0,80,0.00,,,0.00,Rainwise IP-100,2013-01-15 07:05:00,
2013-01-14 23:10:00,30.0,26.0,29.59,WSW,247,0.0,-999.0,81,0.00,,,0.00,Rainwise IP-100,2013-01-15 07:10:00,
2013-01-14 23:15:00,30.1,26.0,29.59,WSW,247,0.0,-999.0,81,0.00,,,0.00,Rainwise IP-100,2013-01-15 07:15:00,
2013-01-14 23:20:00,30.0,26.0,29.60,WSW,247,0.0,-999.0,80,0.00,,,0.00,Rainwise IP-100,2013-01-15 07:20:00,
2013-01-14 23:25:00,29.8,26.0,29.60,WSW,247,0.0,-999.0,81,0.00,,,0.00,Rainwise IP-100,2013-01-15 07:25:00,
2013-01-14 23:30:00,29.6,26.0,29.60,WSW,247,0.0,-999.0,81,0.00,,,0.00,Rainwise IP-100,2013-01-15 07:30:00,
2013-01-14 23:35:00,29.4,24.0,29.60,WSW,247,2.1,-999.0,81,0.00,,,0.00,Rainwise IP-100,2013-01-15 07:35:00,
2013-01-14 23:40:00,29.1,24.0,29.61,WSW,247,1.9,-999.0,82,0.00,,,0.00,Rainwise IP-100,2013-01-15 07:40:00,
2013-01-14 23:45:00,29.0,24.0,29.61,WSW,247,1.6,-999.0,84,0.00,,,0.00,Rainwise IP-100,2013-01-15 07:45:00,
2013-01-14 23:50:00,29.3,24.0,29.61,WSW,247,0.0,-999.0,84,0.00,,,0.00,Rainwise IP-100,2013-01-15 07:50:00,
2013-01-14 23:55:00,29.5,26.0,29.61,WSW,247,1.9,-999.0,84,0.00,,,0.00,Rainwise IP-100,2013-01-15 07:55:00,